EHAM

Amsterdam Airport Schiphol

Code ICAO EHAM
Code IATA AMS
Nom Amsterdam Airport Schiphol
Emplacement Amsterdam, North-Holland, NL
Élévation -11 pieds / -3.4 mètres
Latitude 52.30860138
Longitude 4.76388979
METAR EHAM 210555Z 34005KT 300V040 9999 FEW050TCU 20/16 Q1006 NOSIG
Informations extras Afficher cartes
Piste Longueur Largeur Surface Élévation
04 6608 ft 148 ft ASP -13 ft
06 11483 ft 148 ft ASP -11 ft
09 11329 ft 148 ft ASP -12 ft
18C 10826 ft 148 ft ASP -13 ft
18L 11155 ft 148 ft ASP -12 ft
18R 12467 ft 198 ft ASP -13 ft
22 6608 ft 148 ft ASP -14 ft
24 11483 ft 148 ft ASP -12 ft
27 11329 ft 148 ft ASP -13 ft
36C 10826 ft 148 ft ASP -12 ft
36R 11155 ft 148 ft ASP -11 ft
36L 12467 ft 198 ft ASP -12 ft